Theta_e
328 326 318 313 299 295 291 295 295 297 296 298 302 301 301 302 301 296 311 318 323 325 327 331 338 339 340 343 343 343 343 343 344 343 342 340 338 338 337 336 336 337 339 340 340 341 341 340 341
319 320 314 306 294 289 292 294 295 297 299 300 302 301 300 299 305 306 306 317 320 322 323 326 336 337 338 337 338 339 338 339 338 338 337 334 334 334 333 332 331 332 334 336 338 337 335 334 336
318 317 306 300 294 290 290 294 296 298 299 299 298 300 299 301 303 306 307 315 316 317 320 325 333 335 335 335 335 336 334 335 335 333 330 328 326 326 326 325 324 325 327 332 331 330 330 329 330
311 307 302 293 291 294 293 294 298 298 298 299 300 296 300 304 306 306 311 314 312 315 318 325 330 331 330 330 331 331 330 333 328 326 324 322 321 321 320 320 320 320 322 324 322 321 321 321 323
307 303 295 291 292 294 294 299 299 298 297 298 299 296 297 302 305 308 311 311 310 311 314 318 326 326 326 326 325 325 326 326 322 320 319 318 318 318 318 318 318 318 319 319 319 318 318 317 317
300 299 291 289 292 295 296 300 299 298 298 297 297 296 298 302 302 303 307 307 309 309 311 314 322 324 323 323 322 321 321 320 319 318 316 316 315 315 315 316 316 316 317 317 317 316 315 315 315
298 297 293 292 294 295 297 299 297 297 297 298 300 296 296 298 301 302 303 304 306 307 307 307 309 315 320 320 319 319 317 316 315 314 312 311 311 310 310 312 313 314 314 314 314 314 314 314 314
300 296 291 291 293 294 297 297 298 298 298 300 301 296 295 299 301 300 298 299 302 303 304 303 305 305 305 308 317 315 313 312 310 309 308 309 308 308 306 307 309 311 311 312 312 312 310 310 310
303 292 289 293 294 295 298 296 298 298 297 298 301 298 299 302 300 297 294 295 297 300 299 301 302 301 302 303 308 311 310 309 307 306 306 304 297 299 300 306 307 308 308 308 308 308 307 306 305
298 292 294 297 295 294 297 297 298 295 295 296 297 297 300 300 298 296 294 294 293 295 296 298 297 299 300 303 301 298 301 299 299 299 298 298 296 298 300 304 304 304 303 303 304 305 302 299 296
298 294 298 299 299 298 297 296 298 296 294 296 298 297 298 296 297 296 296 296 295 294 295 297 296 297 297 297 297 296 296 296 296 296 297 297 296 295 294 294 293 293 297 292 294 294 293 293 294
296 300 301 302 300 298 296 298 297 297 298 301 300 300 299 297 296 296 296 295 294 293 295 296 296 296 294 296 296 295 295 295 295 294 295 294 293 292 292 291 291 290 291 289 290 291 291 291 293
297 298 301 301 300 299 299 298 296 297 299 300 301 299 298 298 297 298 298 297 296 295 294 295 295 295 294 295 295 294 294 294 294 293 293 293 292 290 291 290 290 289 289 289 288 289 290 290 291
298 299 299 299 299 299 298 295 297 298 300 300 300 298 297 298 298 296 295 297 297 297 295 295 295 295 295 294 293 293 293 293 293 292 291 292 291 289 290 289 289 288 288 288 288 288 288 288 289
298 295 296 297 298 297 297 294 295 301 298 298 298 298 297 298 298 298 298 298 299 298 296 294 295 295 295 294 293 293 292 293 292 291 291 291 291 289 289 288 288 287 288 287 287 287 287 287 288
293 291 289 294 296 297 297 291 297 299 297 297 297 296 297 298 299 300 300 299 300 298 295 295 296 295 294 293 292 293 292 291 291 291 290 290 290 289 287 287 287 287 287 286 286 286 286 285 286
289 286 288 292 297 295 294 291 296 298 296 296 295 297 297 297 298 299 300 300 299 298 296 294 294 293 293 292 292 291 290 290 290 290 289 289 289 289 287 286 286 287 286 286 286 285 285 284 284
285 286 289 289 293 292 291 292 296 296 295 295 295 294 296 298 300 300 299 300 300 298 295 294 293 293 292 292 291 290 289 289 288 288 289 289 288 288 286 286 286 286 286 285 285 284 284 284 283
289 288 286 292 295 293 293 294 295 297 295 294 297 298 297 299 302 298 300 300 299 296 294 293 292 292 292 291 290 289 289 288 286 287 288 288 287 287 286 285 285 285 284 284 284 284 283 282 283
291 289 288 292 294 292 291 291 296 295 297 298 297 297 298 299 296 297 296 297 297 294 293 293 292 292 292 292 292 288 288 287 287 287 287 288 287 286 286 285 284 283 283 283 283 283 282 282 282
291 288 289 289 291 290 288 287 290 294 296 297 299 299 300 299 295 295 295 296 295 293 293 292 292 292 292 292 290 287 287 286 285 285 286 286 286 286 285 284 283 283 283 281 282 282 281 280 280
289 292 291 289 286 284 288 283 287 291 292 294 297 297 298 296 295 295 294 295 294 294 293 293 292 291 292 291 290 289 288 287 288 288 286 285 286 285 285 284 283 282 282 282 282 283 281 280 279
291 292 290 287 285 283 285 283 285 291 289 292 295 297 297 296 293 293 294 296 295 294 293 292 291 291 291 290 291 289 288 288 283 283 284 284 284 284 284 283 282 281 281 281 281 281 281 281 280
291 288 287 285 283 280 284 284 284 286 290 291 295 297 297 296 293 294 295 295 293 291 292 291 290 290 290 290 290 289 288 284 282 283 284 284 283 283 282 283 281 281 281 281 281 280 280 280 280
288 285 278 276 275 279 285 282 288 290 291 293 294 295 296 294 293 291 291 292 291 290 290 291 290 289 290 290 289 288 288 285 284 283 284 283 282 281 281 281 280 280 280 280 280 280 279 279 278
286 288 279 273 276 281 281 279 285 293 295 294 295 295 293 293 293 293 293 292 291 291 289 290 289 289 289 289 289 288 287 286 286 284 284 284 283 282 281 281 280 279 279 279 279 278 278 278 279
285 283 289 282 270 274 284 285 289 290 291 291 292 289 291 292 292 292 290 291 290 290 290 290 289 290 289 289 289 288 287 286 285 284 283 283 282 281 280 280 279 278 278 278 277 277 277 278 278
287 288 281 281 274 271 282 282 285 289 291 293 290 290 290 291 291 292 291 291 290 290 290 290 290 289 289 288 288 287 286 286 286 283 282 281 281 280 279 278 277 277 277 277 277 277 277 277 277
283 284 285 284 282 280 278 283 286 288 289 291 291 290 289 290 290 291 292 291 290 289 289 289 289 288 288 287 287 286 285 285 283 283 282 281 280 279 278 277 277 276 276 276 276 276 276 275 276
288 288 288 282 281 281 282 283 295 293 290 291 291 291 291 291 292 291 291 290 288 289 289 288 288 288 288 287 286 285 283 282 282 281 280 279 278 277 277 276 276 276 276 275 275 274 275 274 274
Wind_Speed
5 6 2 5 5 5 4 5 3 3 3 2 2 5 8 3 2 5 4 7 11 10 7 6 9 10 8 10 11 12 10 12 13 13 12 12 11 11 11 9 10 10 10 12 12 13 14 13 13
3 4 4 2 4 2 6 3 4 2 3 4 6 3 6 1 4 6 6 7 10 10 7 5 10 11 11 10 8 9 9 8 9 9 11 9 9 10 10 11 11 11 10 9 11 11 11 11 11
3 1 4 4 3 4 4 5 7 3 4 3 3 2 2 5 1 11 6 10 11 9 7 6 10 12 12 12 12 13 11 10 11 10 11 11 11 12 12 11 11 11 10 11 10 10 11 10 11
2 5 5 3 8 8 4 5 6 7 2 2 5 3 2 1 10 9 9 10 10 9 7 8 12 13 12 12 13 13 12 13 12 12 11 11 11 11 11 11 11 11 11 11 11 11 11 11 11
4 3 1 2 7 5 2 8 7 5 5 4 4 3 2 2 7 13 10 9 11 8 6 6 13 13 13 13 12 12 12 13 12 12 12 12 12 12 12 11 12 12 13 13 13 12 11 11 10
4 3 2 3 5 3 3 9 9 6 4 4 2 3 5 6 10 9 9 9 10 10 7 6 10 12 13 14 14 13 13 12 12 12 12 12 12 12 12 12 13 13 12 13 12 13 13 13 12
4 3 5 5 7 5 4 4 7 8 7 7 6 6 0 5 7 8 9 8 9 9 8 6 6 7 11 13 14 14 14 13 13 13 12 12 12 13 13 13 14 14 13 14 14 14 16 16 16
4 3 4 5 4 5 5 3 1 5 7 1 5 6 6 8 11 9 7 8 9 8 8 7 6 6 6 6 11 14 13 13 13 12 11 11 11 11 12 9 11 11 12 13 14 15 15 15 16
3 3 4 5 3 3 5 4 2 4 2 2 6 3 3 13 12 8 6 7 6 7 9 8 8 7 6 6 7 11 14 12 12 9 7 9 5 6 5 9 10 12 12 12 13 14 15 15 14
4 3 7 5 3 2 3 5 7 3 4 4 3 2 6 14 16 14 11 12 8 10 9 11 9 9 8 7 7 6 6 5 5 5 5 5 5 4 5 7 10 11 12 13 13 13 13 9 4
5 7 5 4 2 4 2 2 6 7 7 9 12 9 12 10 15 15 14 14 16 11 8 11 10 10 9 7 5 3 3 4 4 6 5 5 4 4 3 3 3 3 7 3 5 5 4 6 5
5 9 8 7 3 1 3 5 5 9 11 7 12 12 16 17 18 19 18 16 12 12 13 12 10 10 8 6 6 5 4 4 4 5 6 5 3 4 3 2 3 3 2 5 4 3 4 5 5
6 5 7 7 7 6 2 10 7 11 9 10 7 10 17 16 17 14 14 12 11 15 14 14 11 11 9 8 6 5 5 5 5 5 5 5 4 4 4 3 3 3 3 3 4 4 5 6 6
3 4 8 7 9 6 7 6 5 9 8 15 10 12 13 18 21 11 11 16 16 16 16 14 15 12 10 8 7 6 5 5 5 5 5 6 5 5 4 3 3 3 3 3 3 3 4 4 5
3 7 9 9 10 8 6 11 15 24 5 10 12 12 11 17 12 22 21 19 19 14 16 17 15 13 12 9 7 6 5 6 5 5 7 7 6 6 5 4 4 3 3 4 3 4 4 4 4
3 1 5 3 6 4 10 18 13 14 10 16 13 11 11 15 20 19 15 18 17 14 18 17 15 15 13 10 6 5 5 5 5 5 5 7 7 7 6 5 4 4 3 3 2 3 3 4 4
4 7 9 12 10 7 7 12 11 8 9 13 11 14 13 12 15 14 17 19 19 18 19 19 17 16 13 9 6 6 8 5 6 6 5 7 7 7 5 4 4 4 3 2 2 2 2 2 4
9 7 7 10 3 4 7 16 18 9 6 11 11 10 12 16 23 16 18 17 18 18 19 20 15 16 14 9 6 4 5 5 5 6 6 8 6 7 6 5 5 4 3 3 2 2 1 1 3
5 7 7 16 9 7 16 18 20 18 11 13 19 18 15 20 20 10 17 18 17 16 18 20 19 17 13 9 9 7 9 5 4 5 7 7 6 6 6 4 5 4 4 4 3 2 3 4 4
11 15 14 12 13 10 12 19 18 11 16 16 16 17 19 20 8 10 12 15 20 20 19 19 19 18 15 12 10 5 5 3 3 4 6 7 8 7 6 6 5 6 4 4 3 3 2 2 4
18 13 20 18 11 6 9 13 13 12 15 13 17 19 18 20 12 10 12 18 17 20 21 21 21 20 18 14 9 4 4 3 4 5 6 6 8 7 7 7 5 5 4 4 4 4 4 1 2
23 11 11 8 3 15 6 22 9 8 15 13 19 18 21 15 11 9 12 15 19 19 19 20 19 20 17 15 13 17 11 11 10 10 7 6 9 8 8 7 6 6 4 5 4 4 3 4 2
22 6 9 2 5 6 5 10 5 9 10 12 16 18 19 14 12 12 16 20 19 17 19 18 18 18 17 17 18 14 12 8 4 3 9 8 7 8 8 7 7 6 4 4 5 4 4 3 2
2 1 0 2 2 15 10 11 5 8 13 7 15 16 16 16 10 9 11 11 12 11 14 15 18 18 17 18 19 20 18 9 7 9 9 8 7 6 7 7 6 6 5 5 4 3 3 3 3
3 5 5 5 1 15 12 13 21 7 6 12 15 16 18 6 8 10 12 14 13 15 16 15 18 19 18 19 19 18 18 15 15 12 11 11 8 6 9 9 8 5 6 6 6 5 4 3 3
11 14 8 9 9 19 5 11 8 13 13 12 15 15 7 9 9 11 14 15 15 17 16 17 16 17 18 18 18 15 15 11 11 12 10 11 11 10 10 9 8 8 8 7 6 4 4 4 4
4 7 14 3 2 3 11 15 10 4 10 10 15 6 8 10 10 10 8 11 13 15 18 19 18 17 16 18 16 16 14 16 13 12 10 10 9 8 11 10 9 7 7 7 7 4 5 5 5
6 1 2 2 4 9 17 13 18 15 18 17 8 12 10 7 8 8 9 12 11 12 13 14 16 19 17 16 15 14 15 16 12 11 13 11 9 10 11 10 9 8 6 6 7 5 4 5 4
1 5 6 2 5 16 19 19 4 11 9 9 9 11 10 10 10 9 10 9 8 8 12 15 15 16 16 15 15 15 15 14 11 13 12 12 10 11 12 11 9 8 8 6 5 5 5 5 5
6 11 14 11 13 6 10 14 27 15 8 7 5 8 7 7 9 8 9 8 9 14 13 16 14 15 18 15 14 15 12 12 13 13 12 11 12 9 10 10 9 9 7 7 6 5 4 5 5
Wind_Direction
303 283 308 36 42 67 271 262 111 83 68 42 50 77 129 74 138 199 221 122 125 119 110 101 108 100 93 108 106 106 97 85 83 81 81 71 64 61 59 58 46 43 34 28 29 37 33 26 23
301 294 37 73 93 52 269 211 130 146 151 106 69 4 54 107 122 140 123 154 117 120 110 102 120 124 128 119 91 95 100 99 99 88 80 75 73 68 69 64 59 54 45 43 46 43 36 21 11
285 248 80 106 170 196 227 195 144 138 118 97 83 79 132 177 86 158 195 146 120 116 119 126 129 129 125 124 118 118 120 121 106 100 92 87 80 75 70 64 61 57 53 51 46 33 27 21 14
36 11 15 93 247 265 208 157 146 131 67 113 142 147 54 245 158 172 157 137 116 121 127 138 135 132 129 127 125 121 116 108 108 101 93 87 82 76 70 62 58 53 53 52 44 33 26 17 12
26 67 45 253 266 260 231 156 148 140 161 201 142 213 197 10 117 140 145 135 128 125 126 133 137 135 131 126 121 117 119 115 110 108 103 95 89 81 74 69 64 55 50 45 41 34 27 20 12
9 95 39 252 251 274 207 151 138 148 176 178 149 144 216 146 137 164 141 139 136 135 132 121 130 136 140 138 132 126 119 116 116 108 102 97 89 84 71 66 60 54 52 46 41 34 28 25 27
132 96 227 251 256 283 219 148 153 175 165 211 167 166 43 194 178 159 151 135 133 135 131 128 119 135 144 140 135 130 126 124 122 119 110 103 92 78 66 58 54 47 48 40 37 34 35 30 27
118 97 282 248 242 252 172 113 111 161 231 36 165 212 224 200 172 150 143 137 142 146 149 155 149 143 131 131 136 134 132 132 128 128 117 96 87 83 69 58 63 53 55 44 40 39 34 32 29
67 52 251 260 259 214 176 155 306 159 151 211 205 168 224 135 142 139 147 156 159 168 165 164 164 160 148 136 140 139 141 135 135 132 136 109 107 114 110 83 78 64 57 50 44 39 29 23 16
118 155 235 220 290 288 214 175 181 175 214 228 213 46 120 142 160 171 180 185 183 185 183 173 172 165 159 158 155 157 161 154 153 142 125 123 117 123 103 78 76 68 58 45 37 34 26 18 1
200 213 216 282 324 12 292 256 189 180 239 209 210 182 170 166 178 186 197 195 192 183 177 183 176 168 168 163 169 172 167 160 145 140 138 136 112 97 100 91 74 62 67 58 42 25 25 11 3
223 239 244 272 245 188 257 296 251 197 225 217 226 188 173 179 189 194 199 198 184 185 186 178 176 174 178 161 167 172 162 161 154 155 141 130 120 118 113 117 105 88 65 47 39 23 8 15 359
217 252 269 259 257 230 245 253 246 263 258 251 238 157 187 199 204 208 206 201 188 194 188 183 175 176 177 169 169 168 177 162 165 150 136 136 136 132 135 131 108 79 61 45 22 16 15 5 355
245 257 264 264 252 236 197 257 160 255 227 244 234 222 197 200 204 199 199 201 196 193 189 179 182 177 169 173 172 176 168 160 150 145 144 136 140 142 143 125 95 72 56 37 29 25 19 3 351
281 311 309 245 239 223 121 287 226 248 221 240 241 234 213 217 195 207 205 202 196 196 181 183 177 172 174 177 173 170 170 157 147 154 153 148 150 147 141 129 107 97 65 53 33 21 24 7 352
244 202 283 263 158 197 130 265 245 245 192 233 239 238 227 225 215 216 202 199 193 180 179 178 178 177 174 175 167 167 165 161 159 161 160 164 156 156 155 145 142 140 114 100 63 53 13 358 327
249 238 217 297 190 148 171 247 272 257 193 240 232 235 234 241 232 220 204 195 186 180 174 176 175 174 170 167 165 165 169 168 169 167 168 167 162 163 149 143 142 136 119 100 90 56 61 329 321
213 224 250 235 207 149 195 245 262 265 277 238 244 235 236 242 240 212 208 195 185 180 175 172 170 170 167 163 158 155 171 179 173 176 173 166 168 165 153 155 153 148 144 145 114 112 246 250 309
221 258 251 267 260 186 232 240 252 254 252 241 252 255 245 244 247 208 204 189 178 175 169 172 168 174 165 169 172 176 187 181 183 181 167 169 168 168 166 159 158 162 159 155 142 136 51 3 350
245 257 261 271 260 187 248 244 257 241 247 241 236 244 244 247 237 226 192 180 179 174 173 171 174 173 179 178 181 175 161 183 165 169 172 176 169 172 168 162 172 170 153 142 120 95 60 41 39
247 251 260 262 293 246 287 270 240 243 243 252 257 250 255 249 225 230 183 188 176 175 174 176 177 179 182 177 160 106 107 98 171 195 186 186 169 173 169 173 171 173 157 160 140 122 129 152 354
258 218 247 253 254 271 142 291 220 244 242 238 246 252 252 243 222 215 186 182 183 183 174 174 177 181 183 169 175 187 195 195 203 193 179 173 169 171 172 174 176 178 173 151 156 154 154 147 198
264 222 240 210 235 318 191 277 166 195 240 244 242 245 256 251 211 198 189 190 189 173 175 176 177 180 179 181 186 191 204 203 144 136 170 177 175 174 174 174 174 177 170 170 168 160 158 152 139
167 138 172 54 81 263 178 205 156 187 213 230 242 255 252 251 215 203 194 173 174 166 172 173 176 184 182 184 189 195 199 180 161 171 178 184 181 180 182 174 170 174 170 172 171 173 162 156 172
168 86 303 314 2 255 180 221 250 288 255 211 226 238 242 228 167 168 163 173 170 177 179 180 180 187 186 191 196 195 197 186 189 182 184 177 177 185 190 175 173 169 170 172 164 158 160 179 189
199 199 179 212 249 275 129 248 252 215 236 230 229 230 202 179 187 186 180 180 181 184 184 186 187 189 193 194 199 197 195 191 197 190 181 186 187 184 174 175 168 170 169 163 160 157 172 186 210
183 174 216 330 84 3 265 271 291 285 268 260 240 243 216 196 199 189 181 189 185 186 189 187 191 200 198 199 195 198 194 197 199 189 182 184 176 169 168 167 164 161 164 166 164 166 179 200 213
181 228 104 216 202 245 268 270 273 283 270 256 274 227 231 219 206 199 198 200 198 193 186 191 195 200 198 200 203 197 194 198 193 177 185 181 172 159 159 159 158 161 163 164 163 172 179 202 213
128 259 246 296 199 249 261 271 216 253 248 253 244 235 212 212 212 206 209 208 192 184 192 195 197 197 201 195 195 195 195 189 175 183 187 179 162 162 160 159 158 162 164 171 175 177 180 206 217
258 235 230 237 254 234 269 262 261 273 280 260 333 273 254 230 220 207 203 191 190 202 201 200 201 203 207 200 193 197 183 175 178 186 175 159 162 159 158 157 162 166 165 161 169 187 193 205 220